Flag for U.S.A. Weather past 2 weeks in Paradise, California, U.S.A.

Now
77 °F

Clear.


Feels Like: 78 °F
Forecast: 58 / 83 °F
Wind: 9 mph from Southeast

Location: Chico Municipal

Current Time: Aug 20, 2014 at 12:32:29 AM

Latest Report: Aug 19, 2014 at 11:55 PM


Visibility: 10 mi

Pressure: 29.75 "Hg

Humidity: 44%

Dew point: 54 °F

Location of ParadiseLocation

Historic Weather in Paradise — Graph

°F

Paradise temperature yesterday

Maximum temperature yesterday: 90 °F (at 3:47 PM)
Minimum temperature yesterday: 63 °F (at 5:35 AM)
Average temperature yesterday: 75 °F

Past Weeks' High & Low Weather Summary

 TemperatureHumidityPressure
High95 °F (Aug 7, 4:50 PM)100% (Aug 5, 7:55 AM)30.06 "Hg (Aug 5, 7:55 AM)
Low63 °F (Aug 10, 5:55 AM)12% (Aug 17, 3:56 PM)29.68 "Hg (Aug 19, 5:55 PM)
Average78 °F47%29.88 "Hg
* Reported Aug 4 11:15 PM — Aug 19 11:15 PM, Paradise, Weather by CustomWeather, © 2014

Note: Actual official high and low records may vary slightly from our data, if they occured in-between our weather recording intervals... More about our weather records

Advertising

Paradise weather history for previous 24 hours

 ConditionsComfort  
Time TempWeatherWind HumidityBarometerVisibility
11:15 PM
Aug 19
79 °FClear.13 mph42%29.75 "Hg10 mi
10:55 PM79 °FClear.14 mph42%29.74 "Hg10 mi
10:35 PM81 °FClear.12 mph39%29.74 "Hg10 mi
10:15 PM81 °FClear.10 mph39%29.74 "Hg10 mi
9:55 PM82 °FClear.13 mph37%29.73 "Hg10 mi
9:35 PM82 °FClear.13 mph37%29.72 "Hg10 mi
9:15 PM82 °FClear.14 mph37%29.72 "Hg10 mi
8:55 PM82 °FSunny.15 mph37%29.71 "Hg10 mi
8:35 PM84 °FSunny.14 mph33%29.70 "Hg10 mi
8:15 PM84 °FSunny.14 mph35%29.70 "Hg10 mi
7:55 PM84 °FSunny.14 mph35%29.69 "Hg10 mi
7:35 PM86 °FSunny.16 mph33%29.68 "Hg10 mi
7:15 PM86 °FSunny.13 mph33%29.68 "Hg10 mi
6:56 PM88 °FScattered clouds.8 mph33%29.68 "Hg10 mi
5:55 PM90 °FScattered clouds.8 mph29%29.68 "Hg25 mi
3:47 PM90 °FScattered clouds.9 mph33%29.71 "Hg25 mi
2:55 PM88 °FScattered clouds.7 mph33%29.73 "Hg25 mi
1:50 PM84 °FScattered clouds.7 mph37%29.76 "Hg25 mi
12:55 PM81 °FScattered clouds.7 mph42%29.79 "Hg25 mi
11:48 AM77 °FScattered clouds.9 mph47%29.81 "Hg25 mi
10:59 AM73 °FPassing clouds.No wind53%29.83 "Hg25 mi
9:57 AM68 °FPassing clouds.No wind64%29.83 "Hg25 mi
8:50 AM66 °FPassing clouds.9 mph68%29.84 "Hg25 mi
7:55 AM64 °FScattered clouds.6 mph73%29.84 "Hg25 mi
6:55 AM63 °FPassing clouds.6 mph77%29.82 "Hg25 mi
6:35 AM63 °FClear.3 mph77%29.81 "Hg10 mi
6:15 AM63 °FClear.7 mph77%29.80 "Hg10 mi
5:55 AM63 °FClear.6 mph77%29.80 "Hg10 mi
5:35 AM63 °FClear.7 mph77%29.80 "Hg10 mi
5:15 AM64 °FClear.5 mph73%29.80 "Hg10 mi
4:55 AM64 °FClear.3 mph73%29.80 "Hg10 mi
4:35 AM64 °FClear.3 mph73%29.80 "Hg10 mi
3:55 AM66 °FClear.3 mph68%29.79 "Hg10 mi
3:35 AM66 °FClear.7 mph68%29.79 "Hg10 mi
3:15 AM66 °FClear.5 mph68%29.79 "Hg10 mi
2:55 AM68 °FClear.9 mph64%29.77 "Hg10 mi
2:35 AM68 °FClear.7 mph60%29.77 "Hg10 mi
2:15 AM68 °FClear.6 mph60%29.76 "Hg10 mi
1:55 AM70 °FClear.6 mph50%29.76 "Hg10 mi
1:35 AM72 °FClear.6 mph44%29.75 "Hg10 mi
1:15 AM73 °FClear.6 mph38%29.74 "Hg10 mi
12:55 AM75 °FClear.No wind36%29.74 "Hg10 mi
12:35 AM77 °FClear.3 mph34%29.74 "Hg10 mi
12:15 AM79 °FClear.5 mph34%29.74 "Hg10 mi
Weather by CustomWeather, © 2014

See weather overviewHow to use our weather pages